Regional Weather Roundup
Issued by NWS Grand Forks, ND

Home | Current Version | Previous Version | Graphics & Text | Print | Product List | Glossary On
Versions: 1 2 3 4 5 6 7 8 9 10 11 12 13 14 15 16 17 18 19 20 21 22 23 24 25 26 27 28 29 30 31 32 33 34 35 36 37 38 39 40 41 42 43 44 45 46 47 48 49 50
000
ASUS43 KFGF 190831
RWRFGF
PRAIRIE TO PINES  WEATHER ROUNDUP
NATIONAL WEATHER SERVICE EASTERN NORTH DAKOTA/GRAND FORKS ND
300 AM CDT SAT APR 19 2014

 **SATELLITE DATA USED TO AUGMENT SKY COVER AT AUTOMATED STATIONS**
 *****  WEATHER ACROSS EASTERN NORTH DAKOTA  *****

CITY           SKY/WX    TMP DP  RH WIND       PRES   REMARKS
GRAND FORKS    CLOUDY    45  31  58 SE22      29.75F
GRAND FRKS AFB CLOUDY    44  31  59 S16G24    29.74F
GRAND FRKS NWS   N/A     45 N/A N/A SE23        N/A
DEVILS LAKE    PTCLDY    41  30  65 S12       29.66F
FARGO          CLOUDY    51  33  50 SE30G53   29.72F
WAHPETON ARPT  CLOUDY    46  32  57 SE30G44   29.79F
$$

 ***** WEATHER ACROSS CENTRAL AND WESTERN NORTH DAKOTA  *****

CITY           SKY/WX    TMP DP  RH WIND       PRES   REMARKS
BISMARCK       PTCLDY    47  39  74 NW20G29   29.75R
MINOT          CLOUDY    39  36  89 W5        29.68F FOG
JAMESTOWN      MOCLDY    50  41  71 S12       29.67R
MINOT AFB      CLOUDY    37  37  99 CALM      29.67F
GARRISON         N/A     41  37  86 NW13      29.69F
WILLISTON      PTCLDY    39  36  89 SW10      29.72S
DICKINSON      PTCLDY    41  33  73 W18G25    29.75R
HETTINGER      MOCLDY    38  33  82 W9        29.83R
$$

 *****  OTHER AIRPORT OBSERVATIONS IN OUR AREA  *****

CITY           SKY/WX    TMP DP  RH WIND       PRES   REMARKS
WALHALLA       FAIR      37  36  93 SE17      29.73F
GRAFTON AIRPOR FAIR      39  32  75 SE15      29.75F
VALLEY CITY AR FAIR      45  37  76 S16       29.69R
CANDO          FAIR      36  32  87 SE7       29.68F
CAVALIER APRT  FAIR      37  32  81 SE10      29.75F
GWINNER        SUNNY     46  36  66 SE24      29.71R
SHEYENNE NWR     N/A     48  36  63 SE21      29.95S
ROLLA          PTSUNNY   34  32  93 S5        29.69F
 ***** THE ABOVE OBSERVATIONS ARE NON NWS ARE NOT QUALITY
       CONTROLLED AND MAY MIS-REPORT RAIN FOR SNOW...
$$

  *****  WEATHER ACROSS NORTHERN MINNESOTA  *****

CITY           SKY/WX    TMP DP  RH WIND       PRES   REMARKS
FLAG ISLAND    RAIN      34  30  86 SE15G28   29.97F WCI  24
WARROAD        MIX PCPN  34  30  86 SE23G30   29.92F WCI  22
ROSEAU         LGT RAIN  34  30  86 E20G26    29.89F WCI  22
HALLOCK        CLOUDY    39  30  70 SE21G31   29.78F
THF RVR FALLS  CLOUDY    39  28  65 SE21      29.81S
BAUDETTE       FRZ RAIN  34  28  79 SE16G28   29.97F WCI  24
WASKISH        MIX PCPN  34  30  86 E20G28    29.95F WCI  22
CROOKSTON      CLOUDY    46  30  53 SE26G33   29.77F
$$
  *****  WEATHER ACROSS CENTRAL AND WEST MINNESOTA  *****

CITY           SKY/WX    TMP DP  RH WIND       PRES   REMARKS
FOSSTON        CLOUDY    43  28  56 SE26G39   29.77F
BEMIDJI        CLOUDY    37  27  66 SE25G36   29.93F
PARK RAPIDS    CLOUDY    43  25  49 SE26G40   29.95F
ELBOW LAKE     PTSUNNY   48  33  56 SE38G44   29.84F
WADENA         CLOUDY    41  28  60 SE23G30   29.95F
DETROIT LAKES  CLOUDY    43  30  61 SE28G36   29.84F
MOORHEAD       CLOUDY    50  36  57 SE32G40   29.73F
FERGUS FALLS   CLOUDY    45  28  53 SE25G32   29.81F
MORRIS MN      CLOUDY    45  36  70 SE30G36   29.86F
STAPLES        LGT RAIN  41  28  60 SE17G25   29.96F
$$
  *****  WEATHER ELSEWHERE ACROSS MINNESOTA  *****

CITY           SKY/WX    TMP DP  RH WIND       PRES   REMARKS
DULUTH         CLOUDY    33  24  69 E18       30.24S WCI  22
INTRNTL FALLS  FLURRIES  32  27  81 SE16G22   30.14F WCI  21
ELY            CLOUDY    32  23  69 SE12G17   30.23F WCI  23
CLOQUET        CLOUDY    34  25  69 E10       30.20F
WHEATON        CLOUDY    48  39  71 SE22G28   29.83F
BRAINERD       CLOUDY    47  24  40 SE14G24   30.09F
HIBBING        CLOUDY    37  21  52 SE13      30.18F
ALEXANDRIA     CLOUDY    41  30  65 E21G29    29.99F
SAINT CLOUD    CLOUDY    43  27  53 SE14G20   30.09S
MINNEAPOLIS    PTCLDY    45  28  51 SE18G30   30.15F
$$

  *****  WEATHER ACROSS SOUTH DAKOTA  *****

CITY           SKY/WX    TMP DP  RH WIND       PRES   REMARKS
SIOUX FALLS    MOCLDY    57  40  52 S23G31    29.91S
BROOKINGS      NOT AVBL
WATERTOWN      CLOUDY    51  39  63 S20       29.81F
HURON          CLOUDY    59  42  53 S22G32    29.75F
SISSETON         N/A     45  37  73 S22G28    29.78F
ABERDEEN       CLOUDY    56  42  59 S25G35    29.69S
MITCHELL       CLOUDY    60  43  53 S22       29.84F
PIERRE         MOCLDY    55  40  56 NW25G32   29.76R
MOBRIDGE       MOCLDY    49  40  71 NW25G37   29.75R
RAPID CITY     CLOUDY    47  35  63 N20G28    29.88R
$$

  *****  SOME WEATHER IN NEARBY STATES *****

CITY           SKY/WX    TMP DP  RH WIND       PRES   REMARKS
GLASGOW MT     CLOUDY    39  31  72 W12       29.74F
GREAT FALLS MT CLEAR     37  20  50 SW16      29.90S
CHEYENNE WY    CLOUDY    52  32  46 NW8       29.96S
SCOTTSBLUFF NE CLOUDY    54  36  50 NW7       29.86S
OMAHA NE       PTCLDY    54  40  59 S17       30.05F
DES MOINES IA  MOCLDY    51  34  52 SE9       30.17F
DAVENPORT IA   CLEAR     39  30  70 E16       30.33S
CHICAGO IL     CLEAR     38  27  64 NE7       30.36S
EAU CLAIRE WI  MOCLDY    40  27  59 SE14G23   30.28S
LA CROSSE WI   MOCLDY    43  31  62 SE9       30.30R
$$

  *****  SOME NATIONAL WEATHER *****

CITY           SKY/WX    TMP DP  RH WIND       PRES   REMARKS
LA GUARDIA NY  CLOUDY    42  32  67 SW5       30.23F
RALEIGH NC     RAIN      48  45  89 NE7       30.18F FOG
ATLANTA GA     LGT RAIN  52  49  89 NE13      30.05F
NEW ORLEANS LA PTCLDY    60  53  77 NE18      30.11F
OKLAHOMA CITY  MOCLDY    52  42  69 SE6       30.13F
ALBUQUERQUE NM CLOUDY    57  43  59 SW3       30.12F
SALT LAKE CITY PTCLDY    48  47  96 CALM      29.97S
LOS ANGELES CA MOCLDY    60  53  77 E5        29.95S
BOISE ID       MOCLDY    45  27  49 SE7       29.97F
SEATTLE WA     PTCLDY    47  35  63 E5        29.89F
$$

*** WEATHER ACROSS MANITOBA...SASKATCHEWAN AND ONTARIO ***
                ***ONTARIO***

CITY           SKY/WX    TMP DP  RH WIND       PRES   REMARKS
GERALDTON      PTCLDY    18  14  86 CALM      30.43S
THUNDER BAY    MOCLDY    25  25 100 E5        30.42S WCI  19
SIOUX LOOKOUT  PTCLDY    32  21  64 S14G20    30.24F WCI  22
TORONTO        CLEAR     32  27  80 NW6       30.33R
BIG TROUT LK   CLEAR     23  10  58 SE10      30.39F WCI  12
PICKLE LAKE    NOT AVBL
DRYDEN         CLOUDY    34  23  64 SE20G30   30.18F WCI  22
KENORA         LGT SNOW  30  30 100 SE20G29   30.06F WCI  18
$$
                *** MANITOBA***

CITY           SKY/WX    TMP DP  RH WIND       PRES   REMARKS
BRANDON        RAIN      34  32  93 E10       29.73F
DAUPHIN        LGT SNOW  34  32  93 E14G20    29.75F WCI  24
ISLAND LAKE    MOCLDY    30  12  47 SE8       30.18F WCI  23
PILOT MOUND      N/A     34  30  86 SE13        N/A  WCI  25
THE PAS        LGT SNOW  30  28  93 E9        29.91F WCI  22
THOMPSON       PTCLDY    27  10  50 E7        30.13F WCI  19
WINNIPEG       LGT RAIN  36  32  87 SE22G35   29.84F
LYNN LAKE      MOCLDY    21   3  45 E8        30.06F WCI  12
CHURCHILL      CLEAR      9   5  85 S10       30.34F WCI  -6
GILLAM         CLEAR     21  12  68 E8        30.28F WCI  12
$$
                ***SASKATCHEWAN***

CITY           SKY/WX    TMP DP  RH WIND       PRES   REMARKS
ESTEVAN        PTCLDY    37  37 100 SW8       29.65F
KINDERSLEY     FLURRIES  32  30  93 NW15      29.73R WCI  22
LLOYDMINSTER   LGT SNOW  30  30 100 N2        29.78S
PRINCE ALBERT  LGT SNOW  28  27  93 NE13      29.75F FOG     WCI  18
REGINA         CLOUDY    41  37  87 W16       29.57S
YORKTON        LGT RAIN  34  32  93 SE20      29.62F WCI  22
N. BATTLEFORD  CLOUDY    30  28  93 N7        29.77R WCI  23
LA RONGE       FLURRIES  28  25  86 E8        29.89F WCI  20
SASKATOON      CLOUDY    30  28  93 NE13      29.69R WCI  20
SWIFT CURRENT  CLOUDY    37  36  93 W22       29.63R
$$
NOTE: THESE ARE AUTOMATED STATIONS WITH LIMITED QUALITY CONTROL
      "FAIR" INDICATES FEW OR NO CLOUDS BELOW 12,000 FEET WITH NO
      SIGNIFICANT WEATHER AND/OR OBSTRUCTIONS TO VISIBILITY.
      SKY/WX - SKY CONDITION AND SIGNIFICANT WEATHER.
      TMP - AIR TEMPERATURE.    DP   - DEWPOINT TEMPERATURE.
      RH  - RELATIVE HUMIDITY.  PRES - PRESSURE.
      HX  - HEAT INDEX.         WCI  - WIND CHILL INDEX.
$



USA.gov is the U.S. government's official web portal to all federal, state and local government web resources and services.